Weather History for Greeley, CO

Change the Weather History Date:

Wednesday, July 17, 2013

  Actual Average Record
Temperature  
Mean Temperature 74 °F -  
Max Temperature 91 °F 88 °F 102 °F (1977)
Min Temperature 57 °F 56 °F 51 °F (1992)
Cooling Degree Days 9    
Growing Degree Days 24 (Base 50)    
Moisture  
Dew Point 52 °F    
Average Humidity 49    
Maximum Humidity 82    
Minimum Humidity 21    
Precipitation  
Precipitation 0.00 in - - ()
Sea Level Pressure  
Sea Level Pressure 30.20 in    
Wind  
Wind Speed 10 mph (SE)    
Max Wind Speed 17 mph    
Max Gust Speed 24 mph    
Visibility 10 miles    
Events      
Averages and records for this station are not official NWS values.
T = Trace of Precipitation, MM = Missing Value Source: NWS Daily Summary

Daily Weather History Graph

Daily Weather History Graph

Search for Another Location

Airport:

Trip Planner

Search our weather history database for the weather conditions in past years. The results will help you decide how hot, cold, wet, or windy it might be!

Date:

Astronomy

Jul. 17, 2013 Rise Set
Actual Time 5:42 AM MDT 8:26 PM MDT
Civil Twilight 5:10 AM MDT 8:58 PM MDT
Nautical Twilight 4:30 AM MDT 9:37 PM MDT
Astronomical Twilight 3:45 AM MDT 10:23 PM MDT
Moon 3:17 PM MDT (7/17) 12:51 AM MDT (7/17)
Length of Visible Light 15h 47m
Length of Day
14h 43m
Waxing Gibbous, 68% of the Moon is Illuminated
Jul 17
Waxing Gibbous
Jul 22
Full
Jul 29
Last Quarter
Aug 6
New
Aug 14
First Quarter

Hourly Weather History & Observations

Time (MDT) Temp. Heat Index Dew Point Humidity Pressure Visibility Wind Dir Wind Speed Gust Speed Precip Events Conditions
12:15 AM 64.4 °F - 55.4 °F 73% 30.28 in 10.0 mi SE 11.5 mph - N/A   Clear
12:35 AM 64.4 °F - 53.6 °F 68% 30.27 in 10.0 mi ESE 13.8 mph - N/A   Clear
12:55 AM 64.4 °F - 53.6 °F 68% 30.27 in 10.0 mi SE 13.8 mph - N/A   Clear
1:15 AM 64.4 °F - 53.6 °F 68% 30.27 in 10.0 mi SE 11.5 mph - N/A   Clear
1:55 AM 62.6 °F - 53.6 °F 72% 30.25 in 10.0 mi SE 9.2 mph - N/A   Clear
2:15 AM 62.6 °F - 53.6 °F 72% 30.25 in 10.0 mi SE 8.1 mph - N/A   Clear
2:35 AM 62.6 °F - 53.6 °F 72% 30.25 in 10.0 mi SE 4.6 mph - N/A   Clear
3:15 AM 62.6 °F - 53.6 °F 72% 30.25 in 10.0 mi SE 5.8 mph - N/A   Clear
3:35 AM 60.8 °F - 51.8 °F 72% 30.24 in 10.0 mi ESE 6.9 mph - N/A   Clear
3:55 AM 60.8 °F - 51.8 °F 72% 30.24 in 10.0 mi ESE 8.1 mph - N/A   Clear
4:15 AM 60.8 °F - 53.6 °F 77% 30.24 in 10.0 mi ESE 8.1 mph - N/A   Clear
4:35 AM 60.8 °F - 53.6 °F 77% 30.24 in 10.0 mi ESE 8.1 mph - N/A   Clear
4:55 AM 59.0 °F - 53.6 °F 82% 30.24 in 10.0 mi East 8.1 mph - N/A   Clear
5:15 AM 59.0 °F - 51.8 °F 77% 30.24 in 10.0 mi ESE 5.8 mph - N/A   Clear
5:35 AM 57.2 °F - 51.8 °F 82% 30.24 in 10.0 mi ENE 4.6 mph - N/A   Clear
5:55 AM 57.2 °F - 51.8 °F 82% 30.24 in 10.0 mi ENE 5.8 mph - N/A   Clear
6:15 AM 57.2 °F - 51.8 °F 82% 30.24 in 10.0 mi East 5.8 mph - N/A   Clear
6:35 AM 59.0 °F - 51.8 °F 77% 30.25 in 10.0 mi East 6.9 mph - N/A   Clear
6:55 AM 60.8 °F - 53.6 °F 77% 30.25 in 10.0 mi East 8.1 mph - N/A   Clear
7:15 AM 62.6 °F - 53.6 °F 72% 30.26 in 10.0 mi ESE 9.2 mph - N/A   Clear
7:35 AM 64.4 °F - 55.4 °F 73% 30.26 in 9.0 mi ESE 10.4 mph - N/A   Clear
8:15 AM 69.8 °F - 55.4 °F 60% 30.26 in 10.0 mi SE 9.2 mph - N/A   Clear
8:35 AM 71.6 °F - 55.4 °F 57% 30.26 in 10.0 mi SSE 8.1 mph - N/A   Clear
8:55 AM 73.4 °F - 55.4 °F 53% 30.26 in 10.0 mi SE 8.1 mph - N/A   Clear
9:15 AM 73.4 °F - 55.4 °F 53% 30.26 in 10.0 mi ESE 11.5 mph - N/A   Clear
9:35 AM 75.2 °F - 55.4 °F 50% 30.26 in 10.0 mi ESE 12.7 mph - N/A   Clear
9:55 AM 77.0 °F - 55.4 °F 47% 30.26 in 10.0 mi SSE 11.5 mph - N/A   Clear
10:15 AM 78.8 °F - 53.6 °F 42% 30.26 in 10.0 mi South 10.4 mph - N/A   Clear
10:35 AM 78.8 °F - 53.6 °F 42% 30.25 in 10.0 mi SSW 10.4 mph - N/A   Clear
10:55 AM 80.6 °F 80.5 °F 55.4 °F 42% 30.25 in 10.0 mi South 10.4 mph - N/A   Clear
11:35 AM 78.8 °F - 55.4 °F 44% 30.24 in 10.0 mi NNE 4.6 mph - N/A   Clear
11:55 AM 84.2 °F 83.0 °F 55.4 °F 37% 30.24 in 10.0 mi SE 9.2 mph 23.0 mph N/A   Clear
12:15 PM 82.4 °F 81.7 °F 55.4 °F 39% 30.23 in 10.0 mi SE 8.1 mph 18.4 mph N/A   Clear
12:35 PM 86.0 °F 84.5 °F 55.4 °F 35% 30.22 in 10.0 mi WSW 8.1 mph 19.6 mph N/A   Clear
12:55 PM 84.2 °F 83.0 °F 55.4 °F 37% 30.21 in 10.0 mi South 6.9 mph - N/A   Clear
1:15 PM 87.8 °F 85.7 °F 53.6 °F 31% 30.20 in 10.0 mi South 8.1 mph - N/A   Clear
1:35 PM 89.6 °F 87.3 °F 53.6 °F 29% 30.20 in 10.0 mi SE 10.4 mph - N/A   Clear
1:55 PM 89.6 °F - 51.8 °F 27% 30.19 in 10.0 mi SE 15.0 mph 18.4 mph N/A   Clear
2:15 PM 91.4 °F - 51.8 °F 26% 30.19 in 10.0 mi ESE 12.7 mph 24.2 mph N/A   Clear
2:35 PM 89.6 °F - 51.8 °F 27% 30.17 in 10.0 mi SE 15.0 mph 23.0 mph N/A   Clear
2:55 PM 89.6 °F - 51.8 °F 27% 30.17 in 10.0 mi SSE 13.8 mph - N/A   Clear
3:35 PM 91.4 °F - 48.2 °F 23% 30.16 in 10.0 mi SE 12.7 mph - N/A   Clear
3:55 PM 91.4 °F - 48.2 °F 23% 30.16 in 10.0 mi SE 12.7 mph 19.6 mph N/A   Clear
4:15 PM 91.4 °F - 48.2 °F 23% 30.15 in 10.0 mi SE 13.8 mph 20.7 mph N/A   Clear
4:35 PM 91.4 °F - 48.2 °F 23% 30.14 in 10.0 mi ESE 16.1 mph 20.7 mph N/A   Clear
4:55 PM 91.4 °F - 48.2 °F 23% 30.13 in 10.0 mi SE 13.8 mph - N/A   Clear
5:15 PM 91.4 °F - 48.2 °F 23% 30.13 in 10.0 mi SE 16.1 mph 21.9 mph N/A   Clear
5:35 PM 91.4 °F - 48.2 °F 23% 30.12 in 10.0 mi SE 15.0 mph 21.9 mph N/A   Clear
5:55 PM 91.4 °F - 46.4 °F 21% 30.11 in 10.0 mi SE 15.0 mph - N/A   Clear
6:15 PM 91.4 °F - 46.4 °F 21% 30.11 in 10.0 mi SE 17.3 mph 23.0 mph N/A   Clear
6:55 PM 89.6 °F - 46.4 °F 22% 30.11 in 10.0 mi SE 11.5 mph 19.6 mph N/A   Clear
7:15 PM 87.8 °F - 46.4 °F 24% 30.11 in 10.0 mi SE 12.7 mph - N/A   Clear
8:15 PM 82.4 °F - 46.4 °F 28% 30.12 in 10.0 mi SSE 13.8 mph - N/A   Clear
8:35 PM 80.6 °F - 46.4 °F 30% 30.13 in 10.0 mi SE 10.4 mph - N/A   Clear
8:55 PM 78.8 °F - 46.4 °F 32% 30.13 in 10.0 mi SSE 10.4 mph - N/A   Clear
9:15 PM 75.2 °F - 46.4 °F 36% 30.14 in 10.0 mi SE 9.2 mph - N/A   Clear
9:35 PM 75.2 °F - 48.2 °F 38% 30.15 in 10.0 mi SE 10.4 mph - N/A   Clear
9:55 PM 75.2 °F - 50.0 °F 41% 30.16 in 10.0 mi SE 11.5 mph 19.6 mph N/A   Clear
10:15 PM 75.2 °F - 50.0 °F 41% 30.15 in 10.0 mi SE 15.0 mph 19.6 mph N/A   Clear
10:35 PM 75.2 °F - 51.8 °F 44% 30.15 in 10.0 mi SE 12.7 mph 17.3 mph N/A   Clear
10:55 PM 73.4 °F - 50.0 °F 44% 30.15 in 10.0 mi SE 10.4 mph - N/A   Clear
11:15 PM 71.6 °F - 51.8 °F 50% 30.15 in 10.0 mi ESE 8.1 mph - N/A   Clear
11:35 PM 71.6 °F - 51.8 °F 50% 30.15 in 10.0 mi East 8.1 mph - N/A   Clear
11:55 PM 69.8 °F - 51.8 °F 53% 30.15 in 10.0 mi ESE 9.2 mph - N/A   Clear